Location: Bazugues
(43.4465°N, 0.3432°E)
Time: 05:17:17
(UTC+00:00)

Cosmos 1943 - Visible Passes

Search period start: 19 April 2026 00:00
Search period end: 29 April 2026 00:00
Orbit: 831 x 848 km, 71.0° (Epoch: 18 April)

Date Brightness Start Highest point End Pass type
(mag) Time Alt. Az. Time Alt. Az. Time Alt. Az.
19 Apr 4.1 21:14:09 33° ENE 21:14:09 33° ENE 21:17:56 10° NE visible
19 Apr 4.5 22:55:50 32° WNW 22:56:45 34° NW 23:01:54 10° N visible
20 Apr 3.8 20:57:39 35° E 20:57:39 35° E 21:02:13 10° NE visible
20 Apr 4.5 22:39:19 30° W 22:41:03 36° NW 22:46:17 10° N visible
21 Apr 3.8 20:40:49 33° ESE 20:41:26 34° ESE 20:46:29 10° NE visible
21 Apr 4.4 22:22:27 23° WSW 22:25:21 38° WNW 22:30:38 10° NNE visible
22 Apr 3.9 20:23:24 23° SE 20:25:48 32° ESE 20:30:45 10° NE visible
22 Apr 4.4 22:04:58 13° SW 22:09:39 40° WNW 22:15:00 10° NNE visible
23 Apr 4.0 20:05:19 10° SSE 20:10:09 30° ESE 20:15:00 10° NE visible
23 Apr 4.3 21:48:35 10° SW 21:53:57 43° WNW 21:59:21 10° NNE visible
24 Apr 4.0 19:49:47 10° SSE 19:54:31 28° ESE 19:59:16 10° NE visible
24 Apr 4.2 21:32:49 10° SW 21:38:16 45° WNW 21:43:42 10° NNE visible
25 Apr 4.1 19:34:15 10° SSE 19:38:53 26° ESE 19:43:29 10° NE visible
25 Apr 4.1 21:17:05 10° SW 21:22:34 48° WNW 21:28:04 10° NNE visible
26 Apr 6.0 04:26:31 10° N 04:30:21 18° NE 04:34:10 10° E visible
26 Apr 4.2 19:18:45 10° SSE 19:23:14 25° ESE 19:27:43 10° NE visible
26 Apr 4.1 21:01:22 10° SW 21:06:52 51° WNW 21:12:24 10° NNE visible
26 Apr 6.3 22:51:18 10° NW 22:52:19 10° NW 22:53:19 10° NNW visible
27 Apr 6.1 04:10:56 10° N 04:14:37 17° NE 04:18:17 10° E visible
27 Apr 4.0 20:45:38 10° SW 20:51:11 54° WNW 20:56:45 10° NNE visible
27 Apr 6.3 22:35:01 10° NW 22:36:33 11° NW 22:38:05 10° NNW visible
28 Apr 6.2 03:55:22 10° N 03:58:53 17° NE 04:02:23 10° E visible
28 Apr 3.9 20:29:55 10° SW 20:35:30 57° WNW 20:41:06 10° NNE visible
28 Apr 6.3 22:18:53 10° WNW 22:20:48 12° NW 22:22:42 10° NNW visible
